Temp_Advection
nan nan nan nan nan nan nan nan nan nan nan nan nan nan nan nan nan nan nan nan nan nan nan nan nan nan nan nan nan nan nan nan nan nan nan nan nan nan nan nan nan nan nan nan nan nan nan nan nan nan nan nan nan nan nan nan nan nan nan nan nan nan nan nan nan nan nan nan nan
nan -0 -0 -0 -0 -0 -0 -0 0 -0 -0 -0 -0 0 0 0 0 -0 -0 -0 -0 -0 -0 0 0 0 0 0 0 0 0 0 0 0 -0 -0 0 0 0 1 0 -0 -0 0 0 0 0 0 0 -0 -0 -0 -0 -0 -0 -0 -0 0 0 1 1 1 0 0 0 0 0 0 nan
nan -0 -0 -0 -0 -0 -0 0 0 0 0 0 -0 0 0 0 0 0 -0 -0 -0 -0 -0 0 0 0 0 0 0 0 0 0 0 0 -0 -0 -0 -0 0 0 0 0 -0 -0 -0 0 0 0 0 0 0 0 0 0 -0 -0 -0 -0 0 0 0 0 0 0 0 0 0 0 nan
nan -0 -0 -0 -0 -0 -0 0 0 0 0 0 0 0 0 0 0 0 0 0 0 0 -0 -0 -0 0 -0 0 0 0 0 0 0 0 0 0 -0 -0 -0 0 0 0 0 -0 -0 0 0 0 0 0 0 0 0 0 0 -0 -0 -0 -0 -0 0 0 0 0 0 0 0 0 nan
nan -0 -0 -0 -0 0 -0 -0 -0 -0 -0 -0 0 0 -0 -0 0 0 0 1 0 0 -0 0 0 0 0 0 0 0 0 0 0 0 0 0 0 -0 -0 0 0 1 0 0 0 0 0 0 0 0 0 0 0 0 0 0 -0 -0 -0 -0 -0 0 0 0 0 0 0 0 nan
nan -0 -0 0 0 0 -0 -0 -0 -0 -0 -0 -0 0 -0 -0 0 0 0 0 0 0 0 0 0 0 0 0 0 0 0 0 0 0 0 0 -0 -0 -0 -0 0 0 1 1 0 0 0 0 0 0 0 0 0 0 0 0 0 -0 -0 -0 -0 -0 0 0 -0 -0 -0 -0 nan
nan -0 -0 0 0 -0 -0 -0 -0 -0 -0 -0 -0 -0 0 0 0 0 0 0 0 0 0 0 0 0 0 0 0 0 0 0 0 0 0 0 -0 -0 -0 -0 -0 0 0 1 1 0 0 0 0 0 0 -0 -0 -0 -0 -0 -0 -0 -0 -0 -0 -0 -0 -0 -0 -0 -0 -0 nan
nan -0 -0 -0 -0 -0 -0 -0 -0 -0 -0 -0 -0 -0 0 0 0 0 0 0 0 0 0 0 0 0 -0 0 0 0 0 0 -0 -0 -0 -0 0 -0 -0 -0 0 0 0 0 0 0 0 0 0 -0 -0 -0 -0 -1 -1 -1 -0 -0 -0 -0 -0 -0 -0 0 0 0 -0 -0 nan
nan -0 -0 -0 -0 -0 -0 -0 -0 -0 -0 -0 -0 -0 -0 0 0 0 0 0 0 0 0 0 0 0 0 0 0 0 0 0 -0 -0 -0 -0 -0 -0 0 0 0 0 0 0 0 0 0 0 -0 -0 -1 -0 -0 -1 -1 -1 -0 -0 -0 -0 -0 -0 0 0 1 1 1 0 nan
nan -0 -0 -0 -0 -0 -0 -0 -0 -0 -0 -0 -0 -0 -0 -0 -0 -0 -0 -0 0 0 0 0 0 0 0 0 0 0 0 0 0 -0 -0 -0 -0 -0 -0 -0 -0 -0 0 0 0 0 -0 -0 -0 -1 -1 -1 -1 -1 -1 -0 -0 -0 -0 -0 -0 0 0 0 0 0 0 1 nan
nan -0 -0 -0 -0 -0 -0 -0 -0 -0 -0 -0 -0 -0 0 0 -0 -0 -0 -0 -0 -0 -0 -0 0 0 0 0 0 0 0 0 0 0 0 0 0 -0 -0 -0 0 0 -0 -0 -0 -0 -0 -0 -1 -1 -1 -1 -1 -1 -1 -0 -0 -0 -0 -0 -0 -0 -0 -0 -0 -0 -0 0 nan
nan -0 -0 -0 -0 -0 -0 -0 -0 -0 0 -0 -0 0 0 0 -0 -0 -0 -0 -0 -0 -0 -0 0 0 0 0 0 0 0 0 0 0 1 0 0 0 0 0 0 0 0 -0 -0 -0 -0 -0 -0 -1 -1 -1 -1 -1 -1 -0 -1 -1 -0 -0 -0 -0 -0 -0 -0 -0 -0 -0 nan
nan -0 -0 -0 -0 -0 -0 -0 -0 -0 0 0 0 0 0 0 -0 0 0 -0 -0 -0 -0 -0 -0 0 0 0 0 0 0 0 0 1 1 0 0 0 0 0 0 0 0 -0 -0 -0 -0 -0 -0 -0 -1 -1 -1 -0 -0 -0 -0 -1 -1 -1 -0 -0 -0 -0 -0 -0 -0 -0 nan
nan -0 -0 -0 -0 -0 -0 -0 -0 -0 -0 -0 0 0 0 0 0 0 0 0 -0 -0 -0 -0 -0 0 0 0 0 0 0 0 0 0 0 0 0 0 -0 -0 -0 -0 -0 -0 -0 -0 -0 -0 -0 -0 -0 -0 -0 -0 -0 -0 -0 -0 -1 -1 -1 -0 -0 -0 -0 -0 -0 -0 nan
nan -0 -0 -0 -0 -0 -0 -0 -0 -0 -0 -0 0 0 0 0 0 0 0 -0 -0 -0 -0 -0 -0 0 0 0 0 0 0 0 0 0 0 0 0 0 0 -0 -0 -0 -0 -0 0 -0 -0 -0 -0 -0 -0 -0 -0 -0 -0 -0 -0 -0 -0 -0 -0 -0 -0 -0 -0 -0 -0 -0 nan
nan -0 -0 -0 -0 -0 -0 -0 -0 -0 -0 -0 -0 -0 0 0 0 0 -0 -0 -0 -0 0 -0 -0 0 0 0 0 0 0 0 0 0 0 0 0 0 0 0 -0 -0 -0 -0 0 0 -0 -0 -0 -0 -0 -0 -0 -0 -0 -0 -0 -0 -0 -0 -0 -0 -0 -0 -0 -0 -0 0 nan
nan -0 -0 -0 -0 -0 -0 -0 -0 -0 -0 -0 -0 -0 -0 -0 -0 -0 -0 -0 -0 -0 -0 -0 -0 -0 0 0 0 0 0 0 0 0 0 0 0 0 0 0 0 -0 -0 -0 -0 -0 -0 -0 -0 -0 -0 0 0 -0 0 0 -0 -0 -0 -0 -0 -0 -0 -0 -0 -0 -0 -0 nan
nan -0 -0 -0 -0 -0 -0 -0 -0 -0 -0 -0 -0 -0 -0 -0 -0 -0 -0 -0 -0 -0 -0 -0 -0 -0 0 0 0 0 0 -0 0 0 0 0 0 0 0 0 0 0 -0 -0 -0 -0 -0 -0 0 0 -0 0 0 0 1 0 0 0 0 -0 -0 -0 -0 -0 -0 -0 -0 -0 nan
nan -0 -0 -0 -0 -0 -0 -0 -0 -0 -0 -0 -0 -0 -0 -0 -0 -0 -0 -0 -0 -0 -0 -0 -0 -0 -0 0 0 0 0 0 0 0 0 0 0 0 0 0 0 1 0 0 -0 -0 -0 0 0 0 0 -0 0 1 1 1 1 1 0 0 0 -0 -0 -0 -0 -0 -0 -0 nan
nan -0 -0 -0 -0 -0 -0 -0 -0 -0 -0 -0 -0 -0 -0 -0 -0 -0 -0 -0 -0 -0 -0 -0 -0 -0 0 0 0 0 0 -0 -0 0 0 0 0 0 0 0 0 1 1 1 0 0 0 0 0 0 0 -0 -0 0 0 1 1 1 1 1 0 0 0 0 -0 -0 -0 -0 nan
nan -0 -0 -0 -0 -0 -0 -0 -0 -0 -0 -0 -0 -0 -0 -0 -0 -0 -0 -0 -0 -0 -0 -0 -0 -0 -0 0 0 -0 -0 -0 -0 0 0 0 0 0 0 0 0 1 1 1 1 1 0 0 0 0 -0 -0 -0 -0 -0 -0 0 0 1 1 1 1 1 0 0 -0 -0 -0 nan
nan -0 -0 -0 -0 -0 -0 -0 -0 -0 -0 -0 -0 -0 -0 0 -0 -0 -0 -0 -0 -0 -0 -0 -0 -0 -0 -0 -0 -0 -0 -0 -0 0 0 0 -0 0 0 0 0 0 1 1 1 0 0 0 0 0 -0 -0 -0 -0 -0 -1 -0 -0 -0 0 0 1 1 0 0 0 -0 -0 nan
nan -0 -0 -0 -0 -0 -0 -0 -0 -0 -0 -0 -0 -0 -0 -0 -0 -0 -0 -0 0 0 0 -0 -0 -0 -0 -0 -0 -0 -0 -0 -0 0 -0 -0 -0 0 0 0 0 0 0 0 -0 -0 0 0 0 0 -0 -0 -0 -1 -1 -1 -1 -1 -0 -0 0 0 0 0 0 0 0 -0 nan
nan -0 -0 -0 -0 -0 -0 -0 -0 -0 -0 -0 -0 -0 -0 -0 -0 -0 -0 0 0 0 0 0 0 0 0 0 -0 -0 -0 -0 -0 -0 -0 -0 -0 -0 -0 -0 0 -0 -0 -1 -1 -1 -0 -0 -0 -0 -0 -0 -0 -1 -1 -1 -1 -1 -1 -1 -0 -0 -0 0 0 0 0 0 nan
nan -0 -0 -0 -0 -0 -0 -0 -0 -0 -0 -0 -0 -0 -0 -0 -0 -0 -0 -0 0 0 0 0 0 0 0 0 0 0 0 0 0 -0 -0 -0 -0 -0 -0 -0 -0 -0 -1 -1 -1 -1 -0 -0 -0 -0 -0 -0 -0 -0 -0 -1 -1 -1 -1 -1 -0 -0 -0 -0 -0 -0 -0 -0 nan
nan -0 -0 -0 -0 -0 -0 -0 -0 -0 -0 -0 -0 -0 -0 -0 -0 -0 -0 -0 0 -0 -0 -0 0 0 0 0 0 0 0 0 0 -0 -0 -0 -0 -0 -0 -0 -0 -0 -1 -1 -1 -0 -0 -0 -0 -0 -0 0 0 0 0 -0 -0 -0 -0 -0 -0 -0 -0 -0 -0 -0 -0 0 nan
nan 0 -0 -0 -0 -0 -0 -0 -0 -0 -0 -0 -0 -0 -0 -0 -0 -0 -0 -0 -0 -0 -0 -0 -0 -0 -0 0 0 0 0 0 0 -0 -0 -0 -0 -0 -0 -0 -0 -0 -1 -1 -0 -0 -0 -0 -0 -0 -0 -0 0 0 0 0 0 0 -0 -0 -0 -0 -0 -0 -0 -0 -0 0 nan
nan 0 -0 -0 -0 -0 -0 -0 -0 -0 -0 -0 -0 -0 -0 -0 -0 -0 -0 -0 -0 -0 -0 -0 -0 -0 -0 -0 -0 -0 -0 0 0 0 -0 -0 -0 -0 -0 -0 -0 -0 -0 -0 -0 -0 -0 -0 -0 -0 -0 -0 0 0 0 0 0 0 -0 -0 -0 -0 -0 -1 -1 -1 -1 -0 nan
nan 0 -0 -0 -0 -0 -0 -0 -0 -0 -0 -0 -0 -0 -0 -0 -0 -0 -0 -0 0 -0 -0 -0 -0 -0 -0 -0 -0 -0 -0 -0 -0 0 0 -0 -0 -0 -0 -0 -0 -0 -0 -0 -0 -0 -0 -0 -0 -0 -0 -0 -0 0 0 0 0 0 0 -0 -0 -0 -0 -1 -1 -1 -1 -1 nan
nan 0 0 -0 -0 -0 -0 -0 -0 -0 -0 -0 -0 -0 -0 -0 -0 -0 -0 -0 -0 -0 -0 -0 -0 -0 -0 -0 -0 -0 -0 -0 -0 -0 -0 -0 -0 -0 -0 -0 -0 -0 -0 -0 -0 -0 -0 -0 -0 -0 -0 -0 -0 -0 0 0 0 0 0 0 0 0 -0 -0 -0 -0 -1 -1 nan
nan 0 0 -0 -0 -0 -0 -0 -0 -0 -0 -0 -0 -0 -0 -0 -0 -0 -0 -0 -0 -0 -0 -0 -0 -0 -0 -0 -0 -0 -0 -0 -0 -0 -0 -0 -0 -0 -0 -0 0 -0 -0 -0 -0 -0 -0 -0 -0 -0 -0 -0 -0 -0 -0 -0 -0 0 0 0 0 0 0 -0 -0 -0 -0 -0 nan
nan 0 0 -0 -0 -0 -0 -0 -0 -0 -0 -0 -0 -0 -0 -0 -0 -0 -0 -0 -0 -0 -0 -0 -0 -0 -0 -0 -0 -0 -0 -0 -0 -0 -0 -0 -0 -0 -0 -0 0 -0 -0 -0 -0 0 -0 -0 -0 -0 -0 -0 -0 -0 -0 -0 -0 -0 -0 0 0 0 0 0 -0 -0 -0 -0 nan
nan 0 0 0 -0 -0 -0 -0 -0 -0 -0 -0 -0 -0 -0 -0 -0 -0 -0 -0 -0 -0 -0 -0 -0 -0 -0 -0 -0 -0 -0 -0 -0 -0 -0 -0 -0 -0 -0 -0 -0 -0 -0 -0 0 0 0 -0 -0 -0 -0 -0 -0 -0 -0 -0 -0 -0 -0 -0 0 0 0 0 0 0 0 0 nan
nan 0 0 0 -0 -0 -0 -0 -0 -0 -0 -0 -0 -0 -0 -0 -0 -0 -0 -0 -0 -0 -0 -0 -0 -0 -0 -0 -0 -0 -0 -0 -0 -0 -0 -0 -0 -0 -0 -0 -0 -0 -0 -0 0 0 0 0 0 0 0 0 -0 -0 -0 -0 -0 -0 -0 -0 0 0 0 0 0 0 0 0 nan
nan 0 0 0 -0 -0 -0 -0 -0 -0 -0 -0 -0 -0 -0 -0 -0 -0 -0 -0 -0 -0 -0 -0 -0 -0 -0 -0 -0 -0 -0 -0 -0 -0 -0 -0 -0 -0 -0 -0 -0 -0 -0 -0 -0 -0 0 0 0 0 0 0 0 0 -0 -0 -0 -0 -0 -0 -0 0 0 0 0 0 0 0 nan
nan 0 0 0 0 -0 -0 -0 -0 -0 -0 -0 -0 -0 -0 -0 -0 -0 -0 -0 -0 -0 -0 -0 -0 -0 -0 -0 -0 -0 -0 -0 -0 -0 -0 -0 -0 -0 -0 -0 -0 -0 -0 -0 -0 -0 -0 0 0 0 0 0 0 0 -0 -0 -0 -0 -0 -0 -0 -0 0 0 0 0 0 0 nan
nan 0 0 0 0 -0 -0 -0 -0 -0 -0 -0 -0 -0 -0 -0 -0 -0 -0 -0 -0 -0 -0 -0 -0 -0 -0 -0 -0 -0 -0 -0 -0 -0 -0 -0 -0 -0 -0 -0 -0 -0 -0 -0 -0 -0 -0 -0 -0 0 0 0 0 0 0 0 0 -0 -0 -0 -0 -0 -0 -0 -0 -0 -0 0 nan
nan 0 0 0 0 0 -0 -0 -0 -0 -0 -0 -0 -0 -0 -0 -0 -0 -0 -0 -0 -0 -0 -0 -0 -0 -0 -0 -0 -0 -0 -0 -0 -0 -0 -0 -0 -0 -0 -0 -0 -0 -1 -1 -0 -0 -0 -0 -0 -0 -0 -0 -0 0 0 0 0 0 0 0 -0 -0 -0 -0 0 -0 -0 -0 nan
nan -0 0 0 0 0 -0 -0 -0 -0 -0 -0 -0 -0 -0 -0 -0 -0 -0 -0 -0 -0 -0 -0 -0 -0 -0 -0 -0 -0 -0 -0 -0 -0 -0 -0 -0 -0 -0 -0 -1 -1 -1 -1 -1 -1 -1 -1 -1 -0 -0 -0 -0 -0 0 0 0 0 0 0 0 0 0 0 0 0 0 0 nan
nan -0 -0 -0 0 0 -0 -0 -0 -0 -0 -0 -0 -0 -0 -0 -0 -0 -0 -0 -0 -0 -0 -0 -0 -0 -0 -0 -0 -0 -0 -0 -0 -0 -0 -0 -0 -0 -0 -1 -1 -1 -1 -0 -1 -1 -1 -1 -1 -1 -1 -1 -0 -0 -0 0 0 0 0 0 0 0 0 0 0 0 0 0 nan
nan nan nan nan nan nan nan nan nan nan nan nan nan nan nan nan nan nan nan nan nan nan nan nan nan nan nan nan nan nan nan nan nan nan nan nan nan nan nan nan nan nan nan nan nan nan nan nan nan nan nan nan nan nan nan nan nan nan nan nan nan nan nan nan nan nan nan nan nan
Wind_Speed
11 12 12 12 13 13 12 12 13 12 12 12 12 12 11 11 12 12 13 13 14 15 16 17 17 18 18 18 18 18 18 18 18 17 16 15 15 16 16 17 17 17 16 15 16 17 19 20 21 21 21 22 22 22 21 19 17 15 14 13 14 15 15 15 15 14 13 13 12
10 11 12 12 13 13 13 12 12 12 12 12 12 12 11 11 11 11 12 12 13 14 15 16 16 17 17 18 18 18 18 18 18 17 16 15 15 15 15 15 16 16 16 15 15 15 15 16 17 17 18 20 21 21 20 19 17 15 13 12 12 13 14 14 14 14 14 13 11
10 11 11 12 12 12 12 12 12 12 12 12 12 12 11 11 11 11 11 11 12 13 14 15 15 16 17 17 17 17 18 18 18 18 17 16 16 15 15 15 14 15 15 15 15 14 14 13 13 13 14 16 17 18 18 18 17 15 13 12 12 12 13 14 15 15 13 10 9
9 10 11 12 12 12 12 13 13 13 13 13 13 12 12 11 11 11 11 11 11 12 12 13 14 15 16 16 17 17 17 18 18 18 18 17 17 16 16 15 14 14 14 14 14 14 14 13 12 11 11 12 14 15 16 16 15 14 13 13 12 12 12 13 14 13 11 8 7
8 9 10 11 12 12 12 12 13 13 13 13 13 13 13 12 11 11 11 10 10 11 11 12 13 14 15 16 16 16 17 18 18 19 19 18 18 17 16 15 15 14 13 13 14 14 14 14 14 13 13 12 13 14 15 15 15 14 13 12 12 11 11 11 11 11 10 8 8
8 9 10 10 11 12 12 12 12 13 13 14 14 13 13 13 12 12 11 10 10 10 10 11 12 13 14 15 15 16 17 18 18 19 19 19 18 17 17 16 15 14 14 13 13 13 14 15 15 15 15 14 13 13 13 14 15 15 15 14 13 13 12 12 12 12 11 10 10
7 8 9 10 11 11 12 12 12 13 13 13 13 13 13 13 13 12 11 10 10 9 9 10 11 12 13 14 15 15 16 17 18 18 19 18 18 17 17 16 16 15 14 13 13 13 13 14 14 15 15 14 14 13 13 13 13 14 15 15 15 15 15 15 14 13 12 11 11
7 8 9 9 10 11 11 11 12 12 13 13 13 13 13 13 13 12 11 11 10 9 9 9 10 11 12 13 14 15 16 17 18 18 18 18 18 17 17 17 16 16 15 14 13 13 13 13 13 13 14 14 14 13 13 13 13 13 13 13 14 14 14 15 15 14 14 13 13
6 7 8 9 9 10 11 11 11 12 12 12 13 13 13 13 13 12 12 11 10 10 9 9 9 10 11 12 13 14 15 16 17 17 18 18 18 18 18 17 17 16 16 15 14 13 12 12 12 13 13 13 13 13 14 14 14 13 12 12 12 12 12 12 12 13 13 14 14
6 7 7 8 9 9 10 10 11 11 12 12 13 13 13 13 13 13 12 12 11 10 10 9 9 9 10 11 12 13 14 15 16 17 17 18 18 18 18 18 17 17 16 15 14 13 12 12 12 13 14 14 14 14 14 15 15 15 14 13 12 12 11 10 9 9 10 11 12
6 6 7 7 8 9 9 10 10 10 11 12 12 12 13 13 13 13 13 12 12 11 11 10 10 9 9 10 11 12 13 14 15 16 17 17 17 18 18 17 17 17 16 16 15 13 12 12 12 14 15 16 16 16 16 16 16 16 15 14 13 13 12 11 9 8 8 9 9
5 6 6 7 7 8 8 9 9 10 10 11 11 12 12 12 13 13 13 12 12 12 11 11 10 10 10 10 10 11 12 13 14 15 16 16 17 17 17 17 17 17 17 16 15 14 13 13 13 14 17 19 19 19 19 18 18 18 17 16 15 15 14 13 11 10 9 8 8
5 5 6 6 7 7 7 8 8 9 9 10 11 11 12 12 12 12 13 13 13 12 12 12 11 11 11 10 11 11 11 12 13 14 14 15 16 16 16 17 17 17 17 17 16 16 15 14 14 15 17 19 21 21 20 20 20 19 19 18 18 17 16 15 13 12 10 9 8
4 5 5 6 6 6 7 7 7 8 9 9 10 10 11 11 12 12 12 13 13 13 12 12 12 12 11 11 11 11 11 11 12 12 13 14 15 15 16 16 16 17 17 17 17 17 16 16 15 15 16 18 21 21 21 21 20 20 20 19 19 18 17 16 15 14 12 11 10
4 4 5 5 5 5 6 6 7 7 8 8 9 10 10 11 11 12 12 13 13 13 13 12 12 12 12 12 12 12 12 11 11 12 12 13 13 14 15 15 16 16 16 16 17 17 17 17 16 16 16 17 19 21 21 21 21 20 20 19 19 18 18 17 16 15 14 13 12
3 4 4 5 5 5 5 5 6 6 7 7 8 8 9 10 11 11 12 13 13 13 13 13 13 13 13 13 13 13 12 12 12 12 12 12 13 13 14 14 15 15 15 15 16 16 16 17 17 16 16 17 18 20 21 21 21 21 20 20 19 19 18 18 17 17 15 14 13
3 3 4 4 4 4 5 5 5 6 6 7 7 8 8 9 10 11 11 12 13 13 13 13 13 13 13 14 14 14 14 13 13 13 13 13 13 13 13 14 14 15 15 15 15 15 15 16 16 16 16 16 17 18 20 21 21 21 21 20 20 19 19 18 18 17 17 16 15
2 3 3 3 4 4 4 5 5 6 6 6 7 7 8 8 9 10 11 11 12 12 13 13 13 13 13 14 14 14 15 15 14 14 14 14 14 13 14 14 14 14 14 14 14 14 14 14 15 15 15 16 16 16 17 19 20 20 21 21 20 20 19 18 18 18 17 17 16
2 2 3 3 4 4 4 5 5 5 6 6 6 7 7 8 9 9 10 11 11 12 12 12 13 13 13 13 14 15 15 16 16 15 15 15 15 15 14 14 14 13 13 13 13 13 13 13 13 14 14 15 15 15 15 16 18 19 20 20 20 20 20 19 18 18 18 18 17
1 2 2 3 3 4 4 5 5 5 6 6 6 7 7 8 8 9 10 10 11 11 12 12 12 12 12 13 14 14 15 16 16 16 16 16 16 16 16 15 15 14 13 12 12 12 12 12 12 13 13 14 14 14 14 15 15 17 18 19 20 20 20 19 19 18 18 18 18
1 2 2 3 3 4 4 4 5 5 6 6 6 7 7 8 8 9 10 10 10 11 11 11 11 12 12 12 13 14 15 15 16 16 16 16 16 16 16 16 16 15 14 13 12 12 12 12 12 12 13 13 14 14 14 14 14 15 16 17 18 18 19 19 19 18 18 18 18
1 1 2 2 3 4 4 4 5 5 5 6 6 7 7 8 8 9 10 10 10 10 10 11 11 11 12 12 13 13 14 15 15 16 16 16 16 16 16 16 16 16 15 14 14 13 13 13 13 13 13 13 14 14 14 14 14 14 14 15 16 16 17 18 18 18 18 18 18
1 1 2 2 3 3 4 4 5 5 5 6 7 7 7 8 8 9 9 10 10 10 10 10 11 11 12 12 13 13 14 14 15 15 15 15 16 16 16 16 16 16 16 16 16 16 15 15 14 13 13 13 14 14 14 14 14 13 13 13 14 15 15 16 16 16 17 17 17
0 1 1 2 3 3 4 4 5 5 6 6 7 7 7 8 8 9 9 9 10 10 10 10 11 11 12 12 13 13 14 14 14 14 15 15 15 15 15 15 16 16 17 17 17 17 17 17 16 15 14 14 13 14 14 14 14 13 13 13 13 13 14 14 15 15 15 15 16
0 1 1 2 2 3 3 4 4 5 5 6 6 7 7 8 8 9 9 9 9 10 10 10 11 11 11 12 12 13 13 14 14 14 14 15 15 15 15 15 15 16 16 17 17 17 18 17 17 16 15 14 14 13 13 13 13 13 13 13 13 13 13 14 14 14 14 14 14
1 0 1 2 2 3 3 4 4 5 5 6 6 7 7 7 8 8 9 9 9 10 10 10 10 11 11 11 12 12 13 13 14 14 14 15 15 15 15 15 15 16 16 17 17 17 17 17 17 17 16 15 14 13 13 13 13 13 13 13 13 12 12 13 14 14 14 13 13
1 0 1 1 2 2 3 3 4 4 5 5 6 6 7 7 7 8 8 9 9 9 10 10 10 11 11 11 11 12 12 13 13 14 15 15 15 15 15 15 16 16 16 16 16 16 16 16 17 17 17 16 15 14 13 12 12 12 12 12 12 12 12 12 13 14 14 14 13
1 0 0 1 1 2 3 3 4 4 5 5 6 6 6 7 7 8 8 8 9 9 9 10 10 11 11 11 11 12 12 12 13 14 14 15 15 16 16 16 16 16 16 16 16 16 16 16 16 16 16 16 16 15 14 13 12 12 12 12 12 12 12 11 12 13 14 14 13
1 1 0 1 1 2 2 3 3 4 4 5 5 6 6 7 7 7 8 8 8 9 9 10 10 10 11 11 11 12 12 12 13 13 14 15 15 16 16 16 16 16 16 16 16 16 16 16 16 16 16 16 16 16 15 14 13 12 11 11 11 11 11 11 11 11 13 14 14
2 1 0 1 1 2 2 3 3 4 4 4 5 5 6 6 7 7 8 8 8 9 9 10 10 10 11 11 11 12 12 12 13 13 14 14 15 16 16 16 16 16 16 16 16 16 16 16 16 16 16 16 16 15 15 15 14 13 12 11 10 10 9 10 10 10 11 12 13
2 1 0 0 1 1 2 2 3 3 4 4 5 5 6 6 7 7 7 8 8 9 9 9 10 10 11 11 11 12 12 13 13 14 14 15 15 16 16 16 16 16 16 16 16 16 16 16 16 16 16 16 15 15 15 15 15 14 13 12 11 10 9 9 9 9 10 11 12
2 1 1 0 1 1 2 2 2 3 3 4 4 5 5 6 6 7 7 8 8 8 9 9 10 10 11 11 11 12 12 13 13 14 14 15 15 15 16 16 16 16 16 16 16 16 16 17 17 17 16 16 15 15 15 14 14 14 14 13 12 11 10 9 8 8 9 10 11
2 1 1 0 0 1 1 2 2 3 3 4 4 5 5 6 6 7 7 7 8 8 9 9 10 10 11 11 11 12 12 13 14 14 14 15 15 15 15 15 16 16 16 16 16 16 16 17 17 16 16 16 16 15 15 14 14 14 14 13 12 12 11 10 9 8 8 8 9
2 2 1 0 0 1 1 2 2 2 3 3 4 4 5 5 6 6 7 7 8 8 8 9 9 10 10 11 11 12 12 13 14 14 15 15 15 15 15 15 16 16 16 16 16 16 16 16 16 16 16 16 16 16 15 15 14 14 13 12 12 12 11 11 10 9 7 7 7
3 2 1 1 0 1 1 1 2 2 3 3 4 4 5 5 6 6 7 7 7 8 8 9 9 10 10 10 11 12 12 13 13 14 14 15 15 15 15 15 15 16 16 16 16 16 16 16 16 16 16 16 16 16 15 15 14 13 13 12 11 11 11 11 11 10 8 7 6
3 2 2 1 0 0 1 1 2 2 3 3 4 4 4 5 5 6 6 7 7 8 8 9 9 10 10 10 11 11 12 13 13 14 14 14 15 14 14 14 15 15 16 16 16 16 16 16 16 16 16 16 16 16 15 15 14 14 13 12 11 11 11 11 11 11 10 8 7
3 3 2 1 1 0 1 1 2 2 2 3 3 4 4 5 5 5 6 6 7 8 8 9 9 9 10 10 11 11 12 12 13 13 13 14 14 14 14 14 15 15 16 16 16 16 16 16 16 16 16 16 16 16 16 15 15 14 13 12 12 11 11 11 11 11 11 10 9
4 3 2 2 1 1 1 1 2 2 2 3 3 4 4 4 5 5 5 6 7 7 8 8 9 9 10 10 11 11 12 12 13 13 13 13 14 14 14 14 14 15 16 16 16 17 17 17 17 17 17 17 17 16 16 15 15 14 14 13 12 11 11 10 10 11 11 11 10
4 3 3 2 1 1 1 1 1 2 2 3 3 3 4 4 4 5 5 6 6 7 7 8 9 9 10 10 11 11 12 12 13 13 13 13 14 14 14 14 14 15 16 16 16 17 17 17 17 17 17 17 17 17 16 16 15 14 14 14 13 12 11 10 10 10 10 10 10
4 4 3 2 2 1 1 1 1 2 2 2 3 3 4 4 4 5 5 6 6 7 7 8 8 9 9 10 11 11 12 12 12 13 13 13 14 14 14 15 15 15 16 16 16 17 17 17 18 18 18 18 17 17 17 16 15 15 14 14 14 13 12 11 10 9 9 9 9
5 4 3 2 2 1 1 1 1 1 2 2 3 3 4 4 4 4 5 6 6 7 7 8 8 9 9 10 11 11 12 12 12 13 13 14 14 14 15 15 15 16 16 16 16 17 17 18 18 18 18 18 18 18 17 17 16 16 16 15 15 14 14 12 11 10 9 9 8
Wind_Direction
8 9 9 10 11 10 9 7 7 6 5 2 0 1 2 3 3 5 7 8 8 7 7 8 9 10 12 14 13 10 7 5 5 6 6 5 2 359 357 357 358 0 4 8 11 13 12 8 5 1 359 358 358 356 354 349 340 331 322 318 314 310 307 303 303 304 305 304 300
10 9 10 11 12 12 11 10 10 9 8 6 3 2 2 3 3 4 6 7 8 8 7 7 9 11 13 15 15 13 11 11 11 12 11 9 5 2 359 357 355 357 2 8 12 16 18 15 8 1 356 354 354 354 354 353 350 345 337 329 321 314 310 310 311 312 312 311 302
11 11 11 12 13 13 13 13 13 12 11 9 7 5 4 4 4 5 6 7 8 8 7 7 9 11 13 16 16 16 15 15 16 16 16 14 10 7 3 359 355 354 358 5 11 16 19 21 16 8 1 356 353 351 351 353 355 356 354 349 340 332 327 326 327 325 323 323 312
13 13 13 13 13 13 14 14 14 14 14 13 11 9 7 6 6 6 7 8 8 8 7 7 9 11 13 16 17 17 17 18 19 19 19 19 16 13 8 3 359 355 356 360 6 12 17 21 22 20 13 6 1 357 354 354 357 360 1 359 355 350 346 344 341 341 341 339 328
17 15 14 14 13 13 14 14 15 15 16 15 14 12 10 8 8 8 8 8 8 8 7 8 9 12 14 16 16 17 18 19 21 22 22 22 20 17 13 9 6 2 358 358 1 7 14 19 22 24 22 17 12 7 3 360 1 2 3 3 3 1 358 355 356 358 358 353 345
21 19 16 14 13 13 14 14 15 16 17 17 16 15 12 11 10 9 9 8 9 9 8 9 11 13 14 15 16 16 17 18 21 23 24 24 23 20 18 15 13 10 6 2 1 5 11 16 19 20 21 20 17 14 12 11 9 7 6 6 6 3 359 355 355 356 355 351 346
24 21 17 14 13 14 14 14 16 17 18 18 18 17 16 14 12 10 9 9 9 10 10 10 12 14 14 15 15 15 16 17 20 22 24 24 24 22 21 20 18 17 14 10 8 10 14 17 16 15 14 14 13 12 11 12 14 15 13 12 11 9 5 2 360 358 354 349 343
28 23 18 15 14 13 14 14 15 17 18 18 19 18 18 17 15 14 12 11 11 11 12 13 14 16 16 15 14 14 14 15 17 20 23 24 24 23 24 24 24 23 21 19 16 17 20 22 21 16 10 6 4 2 2 3 8 13 18 19 19 16 13 10 8 4 360 355 350
31 27 21 16 15 13 13 13 15 16 18 18 19 20 20 20 20 18 16 15 14 15 16 17 18 19 19 16 14 14 14 14 15 18 20 23 23 23 24 26 27 27 27 25 23 23 25 28 28 22 13 4 359 356 356 359 1 7 14 19 21 22 22 20 16 11 6 2 359
33 29 24 19 16 14 12 12 14 15 17 18 20 20 21 21 23 22 21 19 19 19 20 21 22 23 22 19 16 14 13 13 13 14 16 19 21 23 24 25 27 29 30 29 27 27 29 31 34 29 19 8 1 358 359 1 3 5 9 14 16 19 23 26 23 16 9 6 5
35 32 27 22 18 15 12 12 13 15 17 19 20 21 22 23 25 25 25 24 24 24 25 25 26 27 26 23 20 17 15 14 12 12 13 15 18 21 23 24 26 28 30 30 29 29 30 33 35 33 27 17 10 8 8 8 8 7 8 11 12 15 18 22 23 21 16 11 8
36 34 31 25 21 16 13 12 13 14 16 19 20 21 22 24 27 28 28 28 28 29 29 28 29 30 31 29 25 21 17 15 12 11 11 12 14 17 19 21 24 26 28 29 29 29 29 30 31 33 31 26 19 17 16 15 13 11 11 12 14 16 18 19 19 19 19 16 14
37 35 32 29 23 18 15 13 13 14 16 19 20 21 22 24 27 29 30 31 31 32 32 32 32 33 35 34 31 27 22 17 14 11 10 11 11 12 15 17 19 22 24 26 27 27 26 26 27 30 32 32 27 23 21 20 18 16 15 15 17 19 20 21 21 22 21 20 19
35 35 33 30 26 21 17 15 15 16 18 19 21 21 21 24 26 28 30 31 33 34 35 36 36 36 38 39 37 33 28 23 17 13 11 10 9 9 10 12 14 17 20 23 24 25 24 23 23 25 30 33 32 28 26 25 24 22 21 20 21 22 23 24 25 26 27 28 27
34 34 33 31 27 23 20 19 18 19 20 21 22 23 23 24 26 27 29 30 32 34 36 38 39 40 41 42 42 40 35 30 23 18 14 11 9 8 8 9 10 13 16 19 22 23 23 22 21 21 25 31 34 33 30 30 29 28 27 26 25 24 25 26 27 29 31 33 34
31 32 32 31 28 26 23 22 22 23 24 25 26 26 26 26 27 27 28 29 30 32 34 37 40 42 44 45 46 45 42 38 32 25 20 16 12 10 8 8 8 9 11 15 19 22 23 22 20 19 21 26 33 34 34 32 32 33 32 30 29 27 27 27 28 30 32 33 36
28 30 29 29 27 26 25 25 25 25 27 29 30 30 30 30 30 29 29 29 28 29 31 35 38 41 45 47 48 48 47 44 39 33 28 23 18 15 12 10 9 8 8 10 15 19 22 22 20 17 17 20 28 33 35 34 34 34 34 34 32 30 29 28 29 30 32 33 36
24 26 26 26 25 25 25 24 25 27 29 32 33 34 35 34 34 33 32 31 29 29 30 32 35 38 42 46 48 50 50 48 44 40 34 30 25 21 18 15 12 9 7 8 11 16 19 20 20 17 14 15 20 27 32 34 33 33 34 35 35 34 32 31 31 31 33 34 35
21 23 23 23 22 23 23 24 24 26 29 32 35 37 38 38 38 38 37 35 32 30 30 31 33 36 39 43 46 49 50 50 48 44 40 35 31 27 24 21 18 15 12 10 11 13 15 17 18 17 14 13 14 19 25 30 31 32 32 34 35 35 35 34 33 34 35 36 36
15 19 20 20 20 20 20 20 22 25 28 31 34 36 38 40 41 41 41 39 36 34 32 32 33 35 38 41 44 47 50 51 50 47 44 40 36 32 29 26 24 22 19 16 14 14 14 15 15 15 14 13 12 13 18 23 27 28 29 31 32 33 34 35 35 36 37 38 38
8 16 17 18 18 17 17 19 19 22 25 28 31 34 37 39 42 43 43 42 40 37 36 35 35 37 38 40 42 46 49 50 51 50 47 44 40 36 32 30 28 26 25 24 21 19 17 16 16 15 15 13 12 11 13 17 21 25 27 28 29 31 32 34 35 37 38 40 41
359 10 16 16 15 14 14 15 17 19 22 26 29 31 34 37 41 43 44 43 42 40 39 39 38 39 40 41 43 45 48 50 51 51 50 47 44 40 36 32 30 29 28 27 26 25 23 21 19 18 16 14 12 11 12 14 18 22 25 26 27 28 30 32 34 36 38 40 42
338 7 14 15 14 13 12 12 14 17 20 23 26 28 31 35 39 42 43 43 43 42 41 41 41 40 41 42 44 45 47 50 51 52 52 50 47 44 40 36 33 30 29 28 27 27 26 24 23 21 19 17 14 12 11 12 14 18 22 25 27 28 30 32 33 35 37 39 42
307 359 10 15 14 11 10 11 12 15 18 21 22 24 27 31 35 39 41 42 42 42 42 42 42 42 41 42 44 46 48 50 52 53 53 52 51 48 44 40 36 33 31 30 28 26 25 24 23 23 22 20 17 14 12 12 12 14 18 21 25 28 31 33 35 36 37 38 40
253 353 10 14 13 11 10 10 12 14 17 20 21 22 25 28 33 36 39 40 41 42 42 42 42 42 41 42 43 45 47 49 52 54 55 55 53 51 47 44 41 38 36 33 30 27 25 23 23 23 22 22 20 18 15 13 12 13 15 17 20 24 29 34 36 37 38 39 39
222 334 12 14 11 9 10 11 12 14 16 18 19 21 22 26 30 34 36 38 40 40 41 42 42 42 41 41 42 43 46 48 50 53 56 57 56 53 50 46 44 42 40 37 34 30 27 25 23 22 22 22 22 20 18 16 14 14 15 17 17 19 23 30 34 36 37 39 40
214 197 19 16 11 9 12 13 13 15 17 18 19 19 21 24 28 31 34 36 38 39 40 41 41 41 41 40 40 41 43 45 48 52 55 57 58 55 52 49 46 45 43 41 38 34 31 27 25 23 22 21 21 21 20 18 16 16 17 19 19 18 19 24 28 30 32 34 37
207 198 36 23 16 13 14 15 15 16 17 17 18 19 20 23 27 30 31 33 35 38 39 40 41 41 41 40 39 40 41 43 45 48 52 56 57 57 54 51 48 46 45 43 40 37 34 31 28 26 23 22 20 20 19 18 17 17 18 20 22 21 19 20 23 25 25 25 29
206 205 45 20 21 19 20 18 17 17 16 17 18 18 21 23 26 28 29 30 32 36 38 39 40 40 40 40 39 39 40 41 43 45 48 52 55 56 55 53 50 48 46 44 42 39 37 34 31 29 26 24 21 19 19 18 18 18 18 20 22 23 21 20 21 23 22 20 20
206 204 226 14 20 23 23 22 20 18 17 18 18 19 20 23 26 27 27 28 30 33 36 37 38 39 39 39 38 38 39 40 42 43 44 47 50 52 52 52 51 49 48 45 42 40 38 36 34 31 29 27 24 21 19 18 17 18 18 19 21 22 23 22 23 23 21 18 15
204 201 208 12 15 22 25 23 22 20 19 19 20 20 21 23 26 27 26 26 28 30 32 34 36 37 37 36 36 36 37 38 40 41 42 44 46 47 48 48 49 49 48 45 43 40 38 37 35 33 31 28 26 23 21 19 18 17 18 18 18 19 20 21 22 24 22 18 14
201 198 205 340 11 16 20 21 22 22 23 24 23 21 21 23 25 27 27 26 27 29 31 32 33 34 34 34 34 34 34 35 37 38 39 41 43 44 45 45 45 46 46 45 43 40 38 37 35 33 31 29 27 25 23 21 19 18 18 17 17 17 16 17 19 21 22 18 14
198 195 200 241 358 5 10 19 22 23 26 27 26 22 21 22 24 26 27 26 27 28 30 31 31 32 33 33 32 33 33 33 34 35 36 38 39 40 41 41 42 42 43 42 42 40 38 37 35 34 32 30 28 27 25 23 21 19 17 17 16 15 14 13 13 15 18 18 15
196 192 195 216 311 350 4 9 17 22 26 30 29 26 23 22 24 26 27 26 26 27 28 29 30 30 30 30 30 31 31 31 31 31 32 34 35 36 37 37 38 39 39 39 39 39 38 36 35 34 32 31 29 28 26 25 22 20 18 16 14 12 11 10 9 10 12 14 13
196 191 192 200 250 329 353 4 12 18 25 30 31 28 25 23 25 26 26 25 25 26 27 28 28 28 28 28 28 29 29 29 29 28 29 29 30 31 32 33 34 35 35 34 35 36 36 35 35 33 32 31 30 29 28 27 24 21 18 16 12 9 7 6 6 5 5 6 6
198 193 191 199 229 303 338 355 5 15 22 27 29 29 27 25 25 26 26 25 25 26 27 27 26 26 26 27 27 27 28 28 27 26 26 26 26 26 27 28 30 30 30 30 30 31 32 32 32 31 30 29 28 28 29 28 27 25 21 17 13 9 5 3 1 1 1 360 358
198 196 196 197 222 280 324 342 352 7 16 24 25 25 26 26 26 26 26 26 26 27 27 26 26 25 24 25 26 27 27 25 25 24 24 23 22 22 22 23 25 26 26 25 25 25 26 27 28 28 27 26 26 26 26 27 27 27 25 21 16 11 7 2 358 356 356 356 355
199 199 199 200 214 259 304 330 343 358 11 18 22 23 23 23 25 26 27 26 26 27 27 27 26 25 24 24 25 26 26 24 23 22 22 21 21 20 19 20 21 22 22 21 21 20 21 21 22 23 23 23 22 22 23 24 25 26 26 24 21 17 11 5 358 353 351 350 350
200 200 199 202 213 241 281 314 335 350 2 11 15 17 19 20 23 25 26 26 26 26 27 27 27 27 26 25 25 26 26 24 22 21 20 20 20 19 18 17 19 20 19 18 17 16 16 16 17 17 18 18 18 18 18 18 20 21 23 24 23 22 17 11 3 355 349 345 343
202 202 201 201 208 225 261 301 324 341 352 3 7 11 13 15 19 22 24 26 26 26 26 27 28 29 28 27 27 27 26 24 22 21 20 20 20 19 19 17 17 17 17 16 15 14 13 13 13 13 14 14 14 13 13 13 13 14 16 17 19 20 20 17 11 4 354 345 337
205 204 202 203 207 218 245 280 312 334 348 354 2 4 7 9 14 19 23 25 25 25 25 26 28 30 30 29 28 27 25 25 24 22 21 20 20 20 18 17 16 15 15 14 13 12 11 10 9 9 10 10 10 9 8 7 6 7 9 11 12 13 14 14 13 9 3 354 341
Height
1439 1438 1437 1436 1435 1434 1433 1432 1431 1431 1430 1429 1428 1428 1427 1426 1425 1425 1424 1423 1422 1421 1420 1419 1418 1417 1416 1414 1413 1412 1411 1410 1408 1407 1406 1405 1403 1402 1401 1400 1399 1397 1395 1394 1392 1390 1389 1388 1386 1385 1384 1383 1382 1381 1381 1380 1379 1378 1378 1377 1377 1376 1376 1375 1375 1376 1376 1375 1375
1438 1438 1437 1436 1435 1434 1433 1432 1431 1431 1430 1429 1428 1427 1427 1426 1425 1425 1424 1423 1422 1421 1420 1419 1418 1417 1416 1415 1413 1412 1411 1410 1408 1407 1405 1404 1403 1402 1401 1400 1399 1398 1396 1394 1393 1391 1390 1389 1388 1386 1385 1383 1382 1381 1380 1380 1379 1379 1378 1378 1377 1376 1376 1375 1375 1375 1375 1375 1374
1438 1437 1437 1436 1435 1434 1433 1432 1431 1431 1430 1429 1428 1427 1426 1425 1425 1424 1424 1423 1422 1421 1420 1419 1418 1417 1416 1415 1414 1412 1411 1410 1408 1407 1406 1405 1403 1402 1401 1400 1399 1398 1397 1395 1394 1392 1391 1390 1388 1387 1386 1385 1384 1383 1382 1380 1380 1379 1379 1378 1377 1377 1376 1375 1375 1375 1375 1374 1373
1438 1437 1436 1435 1435 1434 1433 1432 1431 1430 1430 1429 1428 1427 1426 1425 1425 1424 1424 1423 1422 1421 1420 1419 1418 1417 1416 1415 1414 1412 1411 1410 1409 1407 1406 1405 1404 1402 1401 1400 1399 1398 1397 1396 1394 1393 1391 1390 1389 1388 1386 1385 1385 1384 1383 1382 1381 1380 1380 1379 1378 1378 1377 1376 1376 1376 1375 1375 1374
1437 1437 1436 1435 1435 1434 1433 1432 1431 1430 1430 1429 1428 1427 1426 1425 1425 1424 1423 1423 1422 1421 1420 1419 1418 1417 1416 1415 1414 1413 1411 1410 1409 1408 1406 1405 1404 1403 1402 1400 1400 1398 1397 1396 1395 1394 1392 1391 1390 1389 1387 1386 1385 1384 1383 1382 1381 1381 1380 1380 1380 1379 1378 1377 1376 1376 1375 1374 1374
1437 1436 1436 1435 1435 1434 1433 1432 1431 1430 1430 1429 1428 1427 1426 1425 1425 1424 1423 1422 1422 1421 1420 1419 1418 1417 1416 1415 1414 1413 1412 1410 1409 1408 1407 1405 1404 1403 1402 1401 1400 1399 1398 1396 1395 1394 1393 1391 1390 1389 1388 1387 1385 1384 1383 1382 1382 1381 1381 1380 1380 1379 1378 1377 1376 1376 1375 1374 1374
1436 1436 1435 1435 1434 1434 1433 1432 1431 1430 1430 1429 1428 1427 1426 1425 1425 1424 1423 1422 1422 1421 1420 1419 1418 1417 1415 1415 1414 1413 1412 1411 1410 1408 1407 1406 1405 1403 1402 1401 1400 1399 1398 1397 1395 1394 1393 1392 1391 1390 1389 1387 1386 1385 1384 1383 1382 1381 1381 1380 1380 1379 1378 1377 1376 1376 1375 1374 1373
1436 1435 1435 1435 1434 1433 1433 1432 1431 1431 1430 1429 1428 1427 1427 1426 1425 1424 1423 1422 1422 1421 1420 1419 1418 1416 1415 1415 1414 1413 1412 1411 1410 1409 1408 1406 1405 1404 1403 1402 1400 1399 1398 1397 1396 1395 1393 1392 1391 1390 1389 1388 1387 1385 1385 1384 1383 1382 1381 1381 1380 1379 1378 1377 1376 1376 1375 1374 1373
1435 1435 1435 1435 1434 1433 1433 1432 1431 1431 1430 1429 1428 1428 1427 1426 1425 1424 1423 1422 1422 1421 1420 1419 1418 1416 1415 1415 1414 1413 1412 1411 1410 1409 1408 1407 1406 1405 1403 1402 1401 1400 1399 1398 1396 1395 1394 1393 1392 1391 1390 1389 1388 1387 1386 1385 1384 1383 1382 1381 1380 1380 1378 1377 1376 1375 1375 1374 1373
1435 1435 1435 1434 1434 1433 1433 1432 1431 1431 1430 1429 1429 1428 1427 1426 1425 1424 1423 1423 1422 1421 1420 1419 1418 1416 1415 1415 1414 1413 1412 1411 1410 1410 1409 1407 1406 1405 1404 1403 1402 1400 1400 1398 1397 1396 1394 1393 1392 1391 1391 1390 1389 1387 1386 1385 1385 1384 1383 1382 1381 1380 1379 1378 1377 1376 1375 1374 1373
1435 1435 1434 1434 1433 1433 1432 1432 1431 1431 1430 1429 1429 1428 1427 1426 1425 1425 1424 1423 1422 1421 1420 1419 1418 1416 1415 1415 1414 1413 1412 1411 1410 1410 1409 1408 1407 1406 1405 1404 1402 1401 1400 1399 1398 1396 1395 1394 1392 1391 1391 1390 1389 1388 1387 1386 1385 1384 1383 1382 1382 1381 1380 1379 1378 1377 1376 1375 1374
1435 1434 1434 1434 1433 1433 1432 1432 1431 1431 1430 1429 1429 1428 1427 1426 1425 1425 1424 1423 1422 1421 1420 1419 1418 1417 1415 1414 1414 1413 1412 1411 1411 1410 1409 1409 1408 1406 1405 1404 1403 1402 1401 1400 1399 1397 1396 1395 1393 1392 1391 1390 1390 1388 1387 1386 1385 1384 1384 1383 1382 1381 1381 1380 1380 1379 1378 1376 1375
1435 1434 1434 1433 1433 1433 1432 1432 1431 1431 1430 1429 1429 1428 1427 1426 1426 1425 1424 1423 1422 1421 1420 1420 1418 1417 1415 1415 1414 1413 1412 1411 1411 1410 1410 1409 1408 1407 1406 1405 1404 1403 1402 1400 1399 1398 1397 1395 1394 1392 1391 1390 1390 1389 1388 1387 1386 1385 1384 1383 1382 1382 1381 1381 1380 1380 1379 1378 1377
1434 1434 1434 1433 1433 1433 1432 1432 1431 1431 1430 1429 1429 1428 1427 1426 1426 1425 1425 1424 1423 1422 1421 1420 1419 1417 1416 1415 1414 1413 1412 1411 1411 1410 1410 1409 1408 1408 1407 1406 1405 1404 1402 1401 1400 1399 1398 1397 1395 1394 1392 1391 1391 1390 1389 1388 1387 1386 1385 1384 1383 1382 1382 1381 1381 1380 1380 1379 1378
1434 1434 1433 1433 1433 1432 1432 1432 1431 1431 1430 1429 1429 1428 1427 1426 1426 1425 1425 1424 1423 1422 1421 1420 1419 1418 1416 1415 1414 1413 1412 1411 1411 1410 1410 1409 1409 1408 1407 1406 1405 1404 1403 1402 1401 1400 1399 1398 1396 1395 1394 1392 1391 1391 1390 1389 1388 1387 1386 1385 1384 1383 1383 1382 1381 1381 1380 1380 1380
1433 1433 1433 1433 1433 1432 1432 1432 1431 1430 1430 1429 1429 1428 1427 1427 1426 1425 1425 1424 1423 1422 1421 1420 1419 1418 1417 1415 1414 1413 1412 1411 1411 1410 1410 1409 1409 1408 1407 1406 1406 1405 1404 1403 1402 1401 1400 1399 1397 1396 1395 1393 1392 1392 1391 1390 1389 1388 1387 1386 1385 1384 1384 1383 1382 1381 1381 1380 1380
1433 1433 1433 1432 1432 1432 1432 1431 1431 1430 1430 1429 1429 1428 1427 1427 1426 1425 1425 1424 1423 1422 1421 1421 1420 1419 1417 1416 1415 1414 1412 1412 1411 1410 1410 1409 1409 1408 1407 1407 1406 1405 1405 1404 1403 1402 1400 1400 1399 1397 1396 1395 1393 1392 1392 1391 1390 1389 1388 1387 1386 1385 1385 1384 1383 1382 1382 1381 1381
1433 1432 1432 1432 1432 1432 1431 1431 1430 1430 1430 1429 1429 1428 1427 1427 1426 1425 1425 1424 1423 1422 1422 1421 1420 1419 1418 1416 1415 1414 1413 1412 1411 1410 1410 1409 1409 1408 1407 1407 1406 1405 1405 1404 1403 1402 1401 1400 1400 1398 1397 1396 1395 1393 1393 1392 1391 1390 1390 1389 1388 1387 1386 1385 1384 1383 1383 1382 1381
1432 1432 1432 1431 1431 1431 1431 1430 1430 1430 1429 1429 1429 1428 1427 1427 1426 1425 1425 1424 1423 1423 1422 1421 1420 1419 1418 1417 1415 1414 1413 1412 1411 1410 1410 1409 1409 1408 1407 1407 1406 1406 1405 1404 1404 1403 1402 1401 1400 1399 1398 1397 1396 1395 1394 1393 1392 1391 1390 1390 1389 1388 1387 1386 1385 1385 1384 1383 1383
1431 1431 1431 1431 1431 1430 1430 1430 1430 1429 1429 1429 1428 1428 1427 1426 1426 1425 1424 1424 1423 1423 1422 1421 1420 1420 1419 1417 1416 1415 1413 1412 1411 1410 1410 1409 1409 1408 1408 1407 1406 1406 1405 1405 1404 1403 1402 1401 1400 1400 1399 1398 1397 1396 1395 1394 1393 1392 1391 1390 1390 1389 1388 1387 1386 1386 1385 1384 1384
1431 1431 1431 1430 1430 1430 1430 1430 1429 1429 1428 1428 1428 1427 1426 1426 1425 1425 1424 1424 1423 1423 1422 1421 1421 1420 1419 1418 1417 1415 1414 1413 1412 1411 1410 1410 1409 1408 1408 1407 1407 1406 1405 1405 1404 1404 1403 1402 1401 1400 1399 1398 1397 1397 1396 1395 1394 1393 1392 1391 1390 1390 1389 1388 1388 1387 1386 1385 1385
1430 1430 1430 1430 1430 1430 1429 1429 1429 1428 1428 1427 1427 1426 1426 1425 1425 1424 1424 1423 1423 1422 1422 1421 1421 1420 1419 1418 1417 1416 1415 1413 1412 1411 1410 1410 1409 1409 1408 1407 1407 1406 1406 1405 1405 1404 1403 1402 1401 1400 1400 1399 1398 1397 1396 1396 1395 1395 1394 1393 1392 1391 1390 1390 1389 1388 1387 1387 1386
1430 1430 1430 1429 1429 1429 1429 1428 1428 1428 1427 1427 1426 1426 1425 1425 1425 1424 1424 1423 1423 1422 1422 1421 1421 1420 1420 1419 1418 1416 1415 1414 1413 1412 1411 1410 1410 1409 1408 1408 1407 1406 1406 1405 1404 1404 1403 1402 1401 1401 1400 1399 1398 1398 1397 1396 1396 1395 1395 1394 1393 1392 1392 1391 1390 1389 1389 1388 1387
1429 1429 1429 1429 1429 1428 1428 1428 1427 1427 1427 1426 1426 1425 1425 1425 1424 1424 1423 1423 1422 1422 1421 1421 1420 1420 1420 1419 1418 1417 1416 1415 1413 1412 1411 1410 1410 1409 1409 1408 1407 1407 1406 1405 1404 1404 1403 1402 1402 1401 1400 1400 1399 1398 1397 1396 1396 1395 1395 1395 1394 1394 1393 1392 1391 1390 1390 1389 1389
1429 1429 1429 1428 1428 1428 1428 1427 1427 1426 1426 1426 1425 1425 1425 1424 1424 1423 1423 1422 1422 1422 1421 1421 1420 1420 1419 1419 1418 1417 1416 1415 1414 1413 1412 1411 1410 1410 1409 1408 1408 1407 1406 1405 1405 1404 1403 1403 1402 1401 1401 1400 1400 1399 1398 1397 1396 1396 1395 1395 1395 1394 1394 1393 1393 1392 1391 1390 1390
1428 1428 1428 1428 1428 1427 1427 1427 1426 1426 1426 1425 1425 1425 1424 1424 1423 1423 1422 1422 1422 1421 1421 1420 1420 1420 1419 1418 1418 1417 1416 1416 1415 1414 1412 1411 1410 1410 1409 1409 1408 1407 1406 1406 1405 1405 1404 1403 1402 1402 1401 1400 1400 1399 1399 1398 1397 1397 1396 1395 1395 1395 1394 1394 1394 1393 1393 1392 1391
1428 1428 1427 1427 1427 1427 1426 1426 1426 1425 1425 1425 1425 1424 1424 1423 1423 1423 1422 1422 1421 1421 1421 1420 1420 1419 1419 1418 1418 1417 1416 1416 1415 1414 1413 1412 1411 1410 1410 1409 1408 1407 1407 1406 1406 1405 1405 1404 1403 1402 1402 1401 1400 1400 1399 1399 1398 1397 1397 1396 1395 1395 1395 1395 1394 1394 1394 1393 1393
1427 1427 1427 1427 1426 1426 1426 1426 1425 1425 1425 1425 1424 1424 1423 1423 1423 1422 1422 1422 1421 1421 1420 1420 1420 1419 1419 1418 1418 1417 1416 1416 1415 1414 1413 1412 1411 1410 1410 1409 1409 1408 1407 1407 1406 1405 1405 1404 1404 1403 1402 1402 1401 1400 1400 1399 1398 1398 1397 1396 1396 1395 1395 1395 1395 1395 1394 1394 1393
1426 1426 1426 1426 1426 1426 1425 1425 1425 1425 1425 1424 1424 1424 1423 1423 1422 1422 1422 1421 1421 1421 1420 1420 1419 1419 1419 1418 1418 1417 1416 1416 1415 1414 1413 1413 1412 1411 1410 1410 1409 1408 1408 1407 1407 1406 1405 1405 1404 1404 1403 1402 1401 1401 1400 1400 1399 1398 1398 1397 1396 1396 1396 1395 1395 1395 1395 1395 1394
1426 1426 1426 1425 1425 1425 1425 1425 1425 1425 1424 1424 1424 1423 1423 1422 1422 1422 1421 1421 1421 1420 1420 1420 1419 1419 1418 1418 1417 1417 1416 1415 1415 1414 1414 1413 1412 1411 1410 1410 1409 1409 1408 1407 1407 1406 1406 1405 1405 1404 1403 1403 1402 1401 1401 1400 1400 1399 1398 1397 1397 1397 1396 1396 1396 1395 1395 1395 1395
1425 1425 1425 1425 1425 1425 1425 1425 1425 1424 1424 1424 1423 1423 1423 1422 1422 1421 1421 1421 1420 1420 1420 1419 1419 1418 1418 1418 1417 1416 1416 1415 1415 1414 1413 1413 1412 1411 1410 1410 1409 1409 1408 1408 1407 1407 1406 1405 1405 1404 1404 1403 1402 1402 1401 1400 1400 1399 1399 1398 1397 1397 1397 1396 1396 1396 1396 1395 1395
1425 1425 1425 1425 1425 1424 1424 1424 1424 1424 1424 1423 1423 1423 1422 1422 1421 1421 1421 1420 1420 1420 1419 1419 1419 1418 1418 1417 1417 1416 1416 1415 1415 1414 1413 1413 1412 1411 1410 1410 1410 1409 1408 1408 1407 1407 1406 1406 1405 1405 1404 1403 1403 1402 1401 1401 1400 1400 1399 1398 1398 1397 1397 1397 1396 1396 1396 1396 1395
1424 1424 1424 1424 1424 1424 1424 1424 1424 1423 1423 1423 1423 1422 1422 1421 1421 1421 1420 1420 1420 1420 1419 1419 1418 1418 1417 1417 1416 1416 1415 1415 1414 1414 1413 1412 1412 1411 1410 1410 1410 1409 1408 1408 1408 1407 1407 1406 1405 1405 1404 1404 1403 1402 1402 1401 1400 1400 1400 1399 1398 1398 1397 1397 1397 1396 1396 1396 1396
1423 1423 1423 1423 1423 1423 1423 1423 1423 1423 1423 1423 1422 1422 1422 1421 1421 1420 1420 1420 1420 1419 1419 1418 1418 1418 1417 1417 1416 1415 1415 1414 1414 1413 1413 1412 1411 1411 1410 1410 1409 1409 1409 1408 1408 1407 1407 1406 1406 1405 1405 1404 1403 1403 1402 1401 1401 1400 1400 1399 1399 1398 1398 1397 1397 1397 1396 1396 1396
1423 1423 1423 1423 1423 1423 1423 1423 1423 1422 1422 1422 1422 1422 1421 1421 1421 1420 1420 1420 1419 1419 1419 1418 1418 1417 1417 1416 1416 1415 1415 1414 1414 1413 1412 1412 1411 1411 1410 1410 1409 1409 1409 1408 1408 1407 1407 1406 1406 1405 1405 1404 1404 1403 1402 1402 1401 1400 1400 1400 1399 1399 1398 1398 1397 1397 1396 1396 1396
1422 1422 1422 1422 1422 1422 1422 1422 1422 1422 1422 1422 1421 1421 1421 1421 1420 1420 1420 1420 1419 1419 1418 1418 1417 1417 1417 1416 1416 1415 1415 1414 1413 1413 1412 1412 1411 1410 1410 1410 1409 1409 1408 1408 1408 1407 1407 1406 1406 1406 1405 1405 1404 1403 1403 1402 1401 1401 1400 1400 1399 1399 1398 1398 1397 1397 1397 1396 1396
1421 1421 1421 1421 1421 1421 1421 1421 1421 1421 1421 1421 1421 1421 1421 1420 1420 1420 1420 1419 1419 1419 1418 1418 1417 1417 1416 1416 1415 1415 1415 1414 1413 1413 1412 1412 1411 1410 1410 1410 1409 1409 1408 1408 1407 1407 1407 1406 1406 1405 1405 1405 1404 1404 1403 1402 1402 1401 1401 1400 1400 1399 1399 1398 1398 1397 1397 1396 1396
1421 1421 1421 1421 1421 1421 1421 1421 1421 1421 1421 1421 1421 1421 1420 1420 1420 1420 1420 1419 1419 1419 1418 1418 1417 1417 1416 1416 1415 1415 1415 1414 1413 1413 1412 1412 1411 1410 1410 1409 1409 1408 1408 1408 1407 1407 1406 1406 1405 1405 1405 1404 1404 1404 1403 1402 1402 1401 1401 1400 1400 1400 1399 1399 1398 1397 1397 1397 1396
1420 1420 1420 1420 1420 1420 1420 1420 1420 1420 1420 1420 1420 1420 1420 1420 1420 1420 1419 1419 1419 1418 1418 1418 1417 1417 1416 1416 1415 1415 1415 1414 1414 1413 1412 1412 1411 1410 1410 1409 1409 1408 1408 1407 1407 1406 1406 1405 1405 1405 1404 1404 1404 1403 1403 1402 1402 1402 1401 1401 1400 1400 1400 1399 1398 1398 1397 1397 1396
1420 1420 1420 1420 1420 1420 1420 1420 1420 1420 1420 1420 1420 1420 1420 1420 1420 1419 1419 1419 1419 1418 1418 1418 1417 1417 1416 1416 1415 1415 1415 1414 1414 1413 1412 1412 1411 1411 1410 1410 1409 1408 1408 1408 1407 1406 1406 1405 1405 1405 1404 1404 1403 1403 1403 1402 1402 1402 1401 1401 1400 1400 1400 1399 1399 1398 1398 1397 1397
1419 1419 1419 1419 1420 1420 1420 1420 1420 1420 1420 1420 1420 1420 1420 1419 1419 1419 1419 1419 1418 1418 1418 1417 1417 1417 1416 1416 1415 1415 1415 1414 1414 1413 1413 1412 1411 1411 1410 1410 1409 1409 1408 1408 1407 1407 1406 1405 1405 1405 1404 1404 1403 1403 1402 1402 1401 1401 1401 1400 1400 1400 1400 1399 1399 1399 1398 1398 1397